Hourly Data Report for October 10, 2014

All times are specified in Local Standard Time (LST). Add 1 hour to adjust for Daylight Saving Time where and when it is observed.

GRISE FIORD CLIMATE
NUNAVUT

76°25'22.040" N
82°54'08.020" W
44.50 m
2402351
71971
NGC

Download Data

Hourly Data (October 2014)
Hourly Data Report for October 10, 2014
Temp Definition
°C
Dew Point Temp Definition
°C
Rel Hum Definition
%
Wind Dir Definition
10's deg

Wind Spd Definition
km/h
Visibility Definition
km
Stn Press Definition
kPa
Hmdx Definition


Wind Chill Definition


Weather Definition


TIME
00:00 -9.2 -10.7 89 5 3   101.84   -11 LegendNANA
01:00 -8.5 -10.1 88 3 2   101.82   -10 LegendNANA
02:00 -8.6 -10.0 89 5 1   101.80   -9 LegendNANA
03:00 -8.5 -10.1 88 3 5   101.77   -11 LegendNANA
04:00 -8.5 -10.1 88 4 6   101.75   -12 LegendNANA
05:00 -8.3 -9.8 89 4 4   101.72   -10 LegendNANA
06:00 -8.0 -9.6 89 4 6   101.72   -11 LegendNANA
07:00 -8.0 -10.0 85 4 4   101.71   -10 LegendNANA
08:00 -7.8 -9.6 87 3 6   101.68   -11 LegendNANA
09:00 -7.7 -9.0 90 4 4   101.62   -10 LegendNANA
10:00 -8.0 -9.4 90 4 5   101.56   -11 LegendNANA
11:00 -6.8 -8.8 86 12 3   101.52   -8 LegendNANA
12:00 -7.8 -9.6 87 8 2   101.48   -9 LegendNANA
13:00 -6.5 -9.2 81 1 4   101.42   -8 LegendNANA
14:00 -6.6 -9.2 82 4 2   101.40   -8 LegendNANA
15:00 -6.1 -9.1 79 35 4   101.37   -8 LegendNANA
16:00 -6.7 -10.0 77 6 9   101.33   -11 LegendNANA
17:00 -6.7 -11.1 71 2 7   101.28   -10 LegendNANA
18:00 -8.3 -11.3 79 5 7   101.29   -12 LegendNANA
19:00 -7.5 -10.5 79 13 2   101.20   -9 LegendNANA
20:00 -6.3 -10.3 73 13 7   101.17   -10 LegendNANA
21:00 -7.5 -11.0 76 3 3   101.07   -9 LegendNANA
22:00 -6.9 -10.5 76 3 6   101.02   -10 LegendNANA
23:00 -6.0 -10.2 73 36 3   100.97   -7 LegendNANA

Notes on Data Quality.

Legend

  • E = Estimated
  • M = Missing
  • NA = Not Available
  • ‡ = Partner data that is not subject to review by the National Climate Archives
Date modified: